Regional Weather Roundup
Issued by NWS

Home | Current Version | Previous Version | Text Only | Print | Product List | Glossary Off
Versions: 1 2 3 4 5 6 7 8 9 10 11 12 13 14 15 16 17 18 19 20 21 22 23 24 25 26 27 28

000
ASUS45 KBOU 310907
RWRCO

WEATHER ROUNDUP FOR COLORADO
NATIONAL WEATHER SERVICE DENVER/BOULDER CO
300 AM MDT TUE MAY 31 2016

NOTE: "FAIR" INDICATES FEW OR NO CLOUDS BELOW 12000 FEET WITH NO
SIGNIFICANT WEATHER AND/OR OBSTRUCTIONS TO VISIBILITY.

COZ001>005-013-030-031-311000-
...NORTHWEST COLORADO...

CITY           SKY/WX    TMP DP  RH WIND       PRES   REMARKS
CRAIG          MOCLDY    44  37  76 NW5       30.12S
HAYDEN         MOCLDY    46  34  61 NE5       30.13S
MEEKER         MOCLDY    44  37  76 CALM      30.13S
MOUNT WERNER   NOT AVBL
STEAMBOAT SPGS FAIR      43  36  74 SE6       30.15R
WALDEN         NOT AVBL
$$

COZ006>008-011-311000-
...WEST CENTRAL VALLEYS...

CITY           SKY/WX    TMP DP  RH WIND       PRES   REMARKS
GRAND JUNCTION FAIR      55  35  47 S6        30.01S
MONTROSE       FAIR      49  33  54 S8        30.07S
EAGLE          FAIR      41  34  75 E3        30.18S
RIFLE          FAIR      42  33  70 CALM      30.09S
DELTA          FAIR      53  35  51 NE7       30.05R
NUCLA          FAIR      50  32  50 SE8       30.09R
$$

COZ017>023-064>068-311000-
...SOUTHWEST COLORADO...

CITY           SKY/WX    TMP DP  RH WIND       PRES   REMARKS
DURANGO        FAIR      45  28  51 N6        30.05F
CORTEZ         FAIR      41  30  65 E5        30.03S
PAGOSA SPRINGS FAIR      45  28  51 CALM      30.12S
TELLURIDE      FAIR      40  28  60 SE6       30.24S
WOLF CREEK PAS FAIR      37  18  44 E7        30.38S
$$

COZ009-010-012-014-032>034-037-058>063-311000-
...CENTRAL COLORADO...

CITY           SKY/WX    TMP DP  RH WIND       PRES   REMARKS
ASPEN          MOCLDY    38  31  76 S5        30.18S
BUENA VISTA    FAIR      40  29  64 E3        30.20S
COPPER MTN     NOT AVBL
BERTHOUD PASS  FAIR      30  21  69 N5        30.39S WCI  25
COTTONWOOD PAS FAIR      46  21  36 CALM      30.28F
GUNNISON       FAIR      37  30  75 CALM      30.22S
KREMMLING      FAIR      34  32  93 CALM      30.21S
LEADVILLE      FAIR      28  23  81 SE5       30.27S WCI  23
MONARCH PASS   FAIR      36  23  60 NE17      30.46F
SALIDA         FAIR      42  32  67 W5        30.27R
SUNLIGHT       FAIR      37  30  75 NE6       30.34S
WILKERSON PASS FAIR      36  25  64 E5        30.36F
$$

COZ069>075-311000-
...SAN LUIS VALLEY/SANGRE DE CRISTO MOUNTAINS...

CITY           SKY/WX    TMP DP  RH WIND       PRES   REMARKS
ALAMOSA        FAIR      41  34  76 NW3       30.14S
LA VETA PASS   FAIR      41  32  70 NE7       30.28R
SAGUACHE       FAIR      43  30  61 N10       30.16F
$$

COZ035-036-038>040-311000-
...NORTHERN COLORADO FRONT RANGE...

CITY           SKY/WX    TMP DP  RH WIND       PRES   REMARKS
DENVER INTL AP CLOUDY    49  44  83 N15       30.16R
DMNS CITY PARK   N/A     50  43  76 N13G21    30.18R
AURORA         CLOUDY    47  46  96 N14G24    30.18R
FRONT RANGE AP NOT AVBL
ERIE MUNI ARPT CLOUDY    50  46  84 CALM      30.18R
BOULDER MUN AP CLOUDY    52  43  71 N10       30.18S
CENTENNIAL     CLOUDY    49  44  83 N22       30.18R
BROOMFIELD     CLOUDY    50  45  81 N6        30.20R
FORT COLLINS   MOCLDY    52  43  71 N10       30.16S
LONGMONT       CLOUDY    54  44  70 N10       30.19R
$$

COZ041-046-047-076>085-087-088-311000-
...PIKES PEAK/PALMER DIVIDE AND SOUTHERN FOOTHILLS...

CITY           SKY/WX    TMP DP  RH WIND       PRES   REMARKS
COLO. SPRINGS  FAIR      53  36  52 N7        30.10S
A. F. ACADEMY  MOCLDY    48  43  81 N26G36    30.14R
SCHRIEVER AFB  NOT AVBL
ELLICOTT       NOT AVBL
FALCON         FAIR      48  37  67 NW3       30.13S
FORT CARSON    FAIR      50  38  63 N12       30.06F
LIMON          MOCLDY    48  45  89 N16       30.07R
MONUMENT HILL  FAIR      41  37  87 NW7       30.20R
TRINIDAD       FAIR      47  40  76 NW9       30.05S
$$

COZ042>045-048>051-090-091-311000-
...NORTHEAST COLORADO...

CITY           SKY/WX    TMP DP  RH WIND       PRES   REMARKS
GREELEY ARPT   MOCLDY    50  37  62 N10       30.15R
AKRON          FAIR      49  47  93 N8        30.08R
BURLINGTON     FAIR      52  45  77 N6        30.02R
WRAY           FAIR      55  50  82 N15       30.03R
STERLING       CLOUDY    54  50  87 N9        30.08R
HOLYOKE        FAIR      54  50  87 N9        30.04F
FORT MORGAN    CLOUDY    50  45  81 N14       30.11R
$$

COZ086-089-092>099-311000-
...SOUTHEAST COLORADO...

CITY           SKY/WX    TMP DP  RH WIND       PRES   REMARKS
PUEBLO         FAIR      54  44  69 N8        30.03R
LA JUNTA       FAIR      55  48  77 NW5       29.99R
LAMAR          FAIR      58  49  72 N5        29.94S
SPRINGFIELD      N/A     56  54  93 E12       29.96F
$$




USA.gov is the U.S. government's official web portal to all federal, state and local government web resources and services.